カタログに戻る

STARLINK-33752

運用中通信VLEO
NORAD 63580·PAYLOAD·🇺🇸 United States

打ち上げ Apr 14, 2025 から Cape Canaveral Space Force Station

Loading…

次のパス (今後24時間)

TLE

最新Source: CelesTrak SupGP

元期: Sep 15, 2026, 02:14 UTC

1 63580C 25076M   26258.09354167  .00040558  00000+0  14688-2 0  2588
2 63580  43.0026 332.1593 0001675 264.2648 177.6955 15.27562324    14

AllMySatでSTARLINK-33752をリアルタイム追跡

Download on the App Store